Three Rivers, MI

3:47 AM EDT on May 29, 2017 (GMT -0400)
Three Rivers Municipal-Haines

Weather History for KHAI - March, 2014

Change the Weather History Date:

Monday, March 10, 2014

  Actual Average Record
Temperature  
Mean Temperature 42 °F -  
Max Temperature 47 °F 44 °F 65 °F (1977)
Min Temperature 36 °F 25 °F 2 °F (1972)
Degree Days  
Heating Degree Days 24    
Moisture  
Dew Point 32 °F    
Average Humidity 67    
Maximum Humidity 79    
Minimum Humidity 53    
Precipitation  
Precipitation 0.00 in - - ()
Sea Level Pressure  
Sea Level Pressure 29.70 in    
Wind  
Wind Speed 10 mph (SW)    
Max Wind Speed 16 mph    
Max Gust Speed 22 mph    
Visibility 9 miles    
Events      
Averages and records for this station are not official NWS values.
T = Trace of Precipitation, MM = Missing Value Source: NWS Daily Summary

Daily Weather History Graph

Daily Weather History Graph

Search for Another Location

Airport or City:

Trip Planner

Search our weather history database for the weather conditions in past years. The results will help you decide how hot, cold, wet, or windy it might be!

Date:

Astronomy

Mar. 10, 2014 Rise Set
Actual Time 8:02 AM EDT 7:43 PM EDT
Civil Twilight 7:34 AM EDT 8:11 PM EDT
Nautical Twilight 7:02 AM EDT 8:43 PM EDT
Astronomical Twilight 6:29 AM EDT 9:16 PM EDT
Moon 2:22 PM EDT (3/10) 4:17 AM EDT (3/10)
Length of Visible Light 12h 36m
Length of Day
11h 40m
Waxing Gibbous, 70% of the Moon is Illuminated
Mar 10
Waxing Gibbous
Mar 16
Full
Mar 23
Last Quarter
Mar 30
New
Apr 7
First Quarter

Hourly Weather History & Observations

Time (EDT) Temp. Windchill Dew Point Humidity Pressure Visibility Wind Dir Wind Speed Gust Speed Precip Events Conditions
12:15 AM 36.7 °F 28.0 °F 29.3 °F 75% 29.85 in 7.0 mi SW 13.8 mph - N/A   Clear
12:35 AM 36.7 °F 28.4 °F 29.3 °F 75% 29.84 in 7.0 mi SW 12.7 mph 21.9 mph N/A   Clear
12:54 AM 36.9 °F 28.2 °F 29.3 °F 74% 29.83 in 7.0 mi SW 13.8 mph 20.7 mph N/A   Clear
1:15 AM 36.9 °F 27.8 °F 29.3 °F 74% 29.82 in 7.0 mi SW 15.0 mph 19.6 mph N/A   Clear
1:34 AM 37.2 °F 28.7 °F 29.7 °F 74% 29.81 in 7.0 mi SW 13.8 mph - N/A   Clear
1:55 AM 37.0 °F 28.9 °F 29.7 °F 75% 29.81 in 7.0 mi SW 12.7 mph - N/A   Clear
2:15 AM 37.4 °F 28.5 °F 29.7 °F 74% 29.80 in 7.0 mi SW 15.0 mph - N/A   Clear
2:34 AM 36.9 °F 28.2 °F 29.7 °F 75% 29.79 in 7.0 mi SSW 13.8 mph 20.7 mph N/A   Clear
2:55 AM 37.0 °F 28.9 °F 29.7 °F 75% 29.78 in 7.0 mi SSW 12.7 mph - N/A   Clear
3:15 AM 36.7 °F 28.4 °F 29.7 °F 76% 29.77 in 7.0 mi SSW 12.7 mph - N/A   Clear
3:35 AM 36.7 °F 28.9 °F 29.5 °F 75% 29.75 in 7.0 mi SSW 11.5 mph - N/A   Clear
3:55 AM 36.7 °F 28.9 °F 29.7 °F 76% 29.75 in 7.0 mi SSW 11.5 mph - N/A   Clear
4:15 AM 36.5 °F 30.3 °F 29.7 °F 76% 29.75 in 7.0 mi SW 8.1 mph - N/A   Scattered Clouds
4:35 AM 36.7 °F 29.4 °F 30.2 °F 77% 29.73 in 7.0 mi SSW 10.4 mph - N/A   Overcast
4:55 AM 36.7 °F 30.5 °F 30.0 °F 77% 29.73 in 7.0 mi SW 8.1 mph - N/A   Mostly Cloudy
5:14 AM 37.2 °F 31.2 °F 29.8 °F 75% 29.73 in 7.0 mi SW 8.1 mph - N/A   Scattered Clouds
5:35 AM 38.1 °F 33.7 °F 30.2 °F 73% 29.72 in 7.0 mi SW 5.8 mph - N/A   Scattered Clouds
5:55 AM 38.8 °F 33.8 °F 30.6 °F 72% 29.72 in 7.0 mi SW 6.9 mph - N/A   Mostly Cloudy
6:14 AM 40.3 °F 35.5 °F 30.9 °F 69% 29.73 in 7.0 mi SW 6.9 mph - N/A   Scattered Clouds
6:35 AM 40.1 °F 35.3 °F 30.7 °F 69% 29.73 in 7.0 mi WSW 6.9 mph - N/A   Clear
6:55 AM 40.1 °F 35.3 °F 30.9 °F 70% 29.73 in 7.0 mi WSW 6.9 mph - N/A   Mostly Cloudy
7:14 AM 39.9 °F 35.8 °F 30.9 °F 70% 29.72 in 7.0 mi WSW 5.8 mph - N/A   Scattered Clouds
7:35 AM 39.6 °F 36.3 °F 30.9 °F 71% 29.72 in 7.0 mi WSW 4.6 mph - N/A   Clear
7:55 AM 39.2 °F 35.0 °F 30.9 °F 72% 29.72 in 7.0 mi SW 5.8 mph - N/A   Clear
8:15 AM 39.2 °F 33.6 °F 30.7 °F 72% 29.72 in 7.0 mi SW 8.1 mph - N/A   Clear
8:35 AM 39.4 °F 33.2 °F 30.9 °F 72% 29.70 in 7.0 mi SW 9.2 mph - N/A   Clear
8:55 AM 39.7 °F 34.9 °F 30.7 °F 70% 29.71 in 7.0 mi SW 6.9 mph - N/A   Mostly Cloudy
9:15 AM 39.7 °F 34.9 °F 30.9 °F 71% 29.72 in 7.0 mi SW 6.9 mph - N/A   Mostly Cloudy
9:35 AM 40.5 °F 34.6 °F 31.1 °F 69% 29.72 in 7.0 mi SW 9.2 mph - N/A   Mostly Cloudy
9:54 AM 41.2 °F 35.0 °F 31.1 °F 67% 29.72 in 10.0 mi WSW 10.4 mph - N/A   Overcast
10:15 AM 42.1 °F 37.1 °F 31.1 °F 65% 29.72 in 10.0 mi SW 8.1 mph 16.1 mph N/A   Scattered Clouds
10:35 AM 43.0 °F 37.7 °F 31.1 °F 63% 29.72 in 10.0 mi WSW 9.2 mph - N/A   Clear
10:54 AM 43.3 °F 38.6 °F 31.1 °F 62% 29.71 in 10.0 mi SW 8.1 mph - N/A   Clear
11:15 AM 44.4 °F 39.5 °F 31.3 °F 60% 29.71 in 10.0 mi WSW 9.2 mph - N/A   Clear
11:35 AM 45.5 °F 39.6 °F 31.3 °F 58% 29.70 in 10.0 mi WSW 12.7 mph 17.3 mph N/A   Clear
11:54 AM 46.4 °F 41.9 °F 31.5 °F 56% 29.70 in 10.0 mi WSW 9.2 mph - N/A   Clear
12:15 PM 47.3 °F - 31.5 °F 54% 29.70 in 10.0 mi WSW 9.2 mph - N/A   Clear
12:35 PM 47.8 °F - 31.5 °F 53% 29.69 in 10.0 mi WSW 9.2 mph 17.3 mph N/A   Clear
12:54 PM 46.4 °F 42.4 °F 31.5 °F 56% 29.69 in 10.0 mi SSW 8.1 mph - N/A   Clear
1:15 PM 44.8 °F 38.7 °F 31.6 °F 60% 29.68 in 10.0 mi SSW 12.7 mph - N/A   Clear
1:35 PM 47.1 °F - 31.8 °F 55% 29.68 in 10.0 mi SW 6.9 mph - N/A   Clear
1:54 PM 46.0 °F 40.6 °F 31.8 °F 58% 29.66 in 10.0 mi SSW 11.5 mph - N/A   Clear
2:15 PM 45.3 °F 38.4 °F 31.8 °F 59% 29.65 in 10.0 mi SSW 16.1 mph - N/A   Clear
2:35 PM 45.3 °F 38.7 °F 31.8 °F 59% 29.65 in 10.0 mi SSW 15.0 mph - N/A   Clear
2:55 PM 45.5 °F 38.9 °F 31.8 °F 59% 29.64 in 10.0 mi SSW 15.0 mph 21.9 mph N/A   Clear
3:15 PM 45.7 °F 39.5 °F 32.0 °F 59% 29.64 in 10.0 mi SSW 13.8 mph - N/A   Clear
3:35 PM 45.0 °F 39.7 °F 32.0 °F 60% 29.64 in 10.0 mi SW 10.4 mph - N/A   Clear
3:55 PM 46.2 °F 40.1 °F 32.0 °F 58% 29.64 in 10.0 mi SSW 13.8 mph - N/A   Clear
4:15 PM 46.9 °F - 32.0 °F 56% 29.63 in 10.0 mi SW 11.5 mph 17.3 mph N/A   Clear
4:34 PM 45.7 °F 40.2 °F 32.0 °F 59% 29.63 in 10.0 mi SSW 11.5 mph - N/A   Clear
4:55 PM 45.7 °F 39.8 °F 32.2 °F 59% 29.63 in 10.0 mi SSW 12.7 mph - N/A   Clear
5:14 PM 45.9 °F 40.8 °F 32.4 °F 59% 29.63 in 10.0 mi SSW 10.4 mph - N/A   Clear
5:35 PM 46.4 °F 41.9 °F 32.2 °F 58% 29.62 in 10.0 mi SW 9.2 mph - N/A   Clear
5:55 PM 46.9 °F - 32.7 °F 58% 29.63 in 10.0 mi SW 8.1 mph - N/A   Clear
6:14 PM 46.6 °F - 32.9 °F 59% 29.63 in 10.0 mi SW 6.9 mph - N/A   Clear
6:35 PM 45.3 °F 41.1 °F 32.9 °F 62% 29.62 in 10.0 mi SSW 8.1 mph - N/A   Clear
6:55 PM 44.8 °F 39.9 °F 33.1 °F 64% 29.63 in 10.0 mi SW 9.2 mph - N/A   Clear
7:15 PM 46.4 °F 45.2 °F 33.8 °F 62% 29.63 in 10.0 mi SW 3.5 mph - N/A   Clear
7:34 PM 47.3 °F - 34.3 °F 61% 29.64 in 10.0 mi WSW 5.8 mph - N/A   Clear
7:55 PM 47.3 °F - 35.4 °F 63% 29.65 in 10.0 mi WSW 8.1 mph - N/A   Clear
8:15 PM 47.3 °F - 36.3 °F 66% 29.66 in 10.0 mi West 5.8 mph - N/A   Clear
8:34 PM 46.4 °F 43.5 °F 36.1 °F 67% 29.67 in 10.0 mi WSW 5.8 mph - N/A   Clear
8:55 PM 46.4 °F 42.9 °F 36.5 °F 68% 29.67 in 10.0 mi WSW 6.9 mph - N/A   Clear
9:15 PM 46.4 °F 42.9 °F 37.0 °F 70% 29.67 in 10.0 mi WSW 6.9 mph - N/A   Clear
9:34 PM 46.0 °F 42.5 °F 37.4 °F 72% 29.67 in 10.0 mi WSW 6.9 mph - N/A   Clear
9:55 PM 45.7 °F 42.0 °F 37.6 °F 73% 29.67 in 10.0 mi WSW 6.9 mph - N/A   Clear
10:14 PM 45.1 °F 41.4 °F 37.2 °F 74% 29.67 in 10.0 mi WSW 6.9 mph - N/A   Clear
10:35 PM 44.8 °F 41.6 °F 37.2 °F 75% 29.67 in 10.0 mi SW 5.8 mph - N/A   Clear
10:55 PM 44.4 °F 42.9 °F 37.0 °F 75% 29.67 in 10.0 mi WSW 3.5 mph - N/A   Clear
11:14 PM 44.1 °F 41.5 °F 37.4 °F 77% 29.67 in 7.0 mi WSW 4.6 mph - N/A   Clear
11:35 PM 42.1 °F 40.2 °F 35.8 °F 78% 29.67 in 10.0 mi SW 3.5 mph - N/A   Clear
11:55 PM 42.4 °F 40.7 °F 36.3 °F 79% 29.67 in 7.0 mi SW 3.5 mph - N/A   Clear